Location: Penton Mewsey
(51.2167°N, 1.5167°W)
Time: 21:46:21
(UTC+00:00)

Resurs 1-3 - Pass Details

Date: 30 March 2020
Orbit: 630 x 632 km, 97.9° (Epoch: 22 May)

Event Time Altitude Azimuth Distance (km) Brightness Sun altitude
Exits shadow 20:05:33 13° 160° (SSE) 1,840 5.6 -14.1°
Maximum altitude 20:09:30 81° 74° (ENE) 647 3.5 -14.7°
Drops below altitude 10° 20:13:55 10° 348° (NNW) 2,027 6.8 -15.3°
Sets 20:16:08 0° 347° (NNW) 2,940 7.7 -15.6°
